Notices

What's New in latest Release from April 7th, 2021:

- Updated Glossary, including Speed of Maximum Gust, and Total Hourly Precipitation

- Updated national and regional climate services offices contacts and prices information

- Addition of station inventory lists for 1981-2010, 1971-2000, and 1961-1990 Normals.

If you haven't already, please take our survey and provide feedback about our website: https://eccc.sondage-survey.ca/f/LanguageSelection.aspx?s=442ca660-fcf1-47c0-95a9-59707d6fd709

Hourly Data Report for March 20, 2021

MIRAMICHI RCS
NEW BRUNSWICK
Current Station Operator: ECCC - MSC

47°00'34.000" N
65°27'54.000" W
33.00 m
8100989
71744
ACQ

Download Data

Hourly Data (March 2021)
Hourly Data Report for March 20, 2021
TIME
LST
Temp Definition
°C
Dew Point Definition
°C
Rel Hum Definition
%
Precip. Amount Definition
mm

Wind Dir Definition
10's deg

Wind Spd Definition
km/h
Visibility Definition
km
Stn Press Definition
kPa
Hmdx Definition


Wind Chill Definition


Weather Definition


00:00 -9.3 -18.1 49 LegendMM 26 10   101.75   -14 LegendNANA
01:00 -8.8 -17.8 48 LegendMM 26 11   101.78   -14 LegendNANA
02:00 -9.8 -17.7 52 LegendMM 26 9   101.76   -15 LegendNANA
03:00 -9.5 -16.9 55 LegendMM 27 11   101.76   -15 LegendNANA
04:00 -10.4 -17.0 58 LegendMM 25 7   101.76   -14 LegendNANA
05:00 -10.0 -17.0 57 LegendMM 23 10   101.75   -15 LegendNANA
06:00 -9.0 -16.8 53 LegendMM 23 13   101.73   -15 LegendNANA
07:00 -8.4 -16.1 53 LegendMM 24 16   101.73   -15 LegendNANA
08:00 -7.1 -14.5 55 LegendMM 23 18   101.73   -14 LegendNANA
09:00 -5.8 -13.8 53 LegendMM 23 17   101.71   -12 LegendNANA
10:00 -4.1 -13.2 49 LegendMM 23 17   101.67   -10 LegendNANA
11:00 -1.1 -11.4 46 LegendMM 23 15   101.66   -6 LegendNANA
12:00 1.8 -10.7 39 LegendMM 23 15   101.63     LegendNANA
13:00 4.6 -7.7 40 LegendMM 23 16   101.58     LegendNANA
14:00 7.1 -8.4 32 LegendMM 24 10   101.56     LegendNANA
15:00 8.7 -8.8 28 LegendMM 31 17   101.57     LegendNANA
16:00 8.7 -7.9 30 LegendMM 26 22   101.59     LegendNANA
17:00 9.2 -7.0 31 LegendMM 26 10   101.64     LegendNANA
18:00 8.2 -6.6 34 LegendMM 24 14   101.74     LegendNANA
19:00 5.5 -5.5 45 LegendMM 26 7   101.84     LegendNANA
20:00 3.5 -6.2 49 LegendMM 25 9   101.95     LegendNANA
21:00 2.6 -6.8 50 LegendMM 26 8   102.03     LegendNANA
22:00 1.1 -6.3 58 LegendMM 26 11   102.08     LegendNANA
23:00 1.0 -6.6 57 LegendMM 26 9   102.12     LegendNANA

Notes on Data Quality.

Legend

  • E = Estimated
  • M = Missing
  • NA = Not Available*
  • [empty] = Indicates an unobserved value
Date modified: